• In United Kingdom
  • List of Countries
  • For 7 days
  • Water Temperature
  • Satellite Maps
  • Weather Map
  • Weather Widgets
  • user-avatar
    Login

    Hourly Weather Chihuahua

    Today, 25 November, Saturday

    Time Temperature Precipitation Wind Pressure Humidity
    00:00 +16°C° 0 mm 1 mps 641 mmHg 26%
    01:00 +16°C° 0 mm 1 mps 641 mmHg 26%
    02:00 +15°C° 0 mm 1 mps 641 mmHg 26%
    03:00 +15°C° 0 mm 2 mps 641 mmHg 26%
    04:00 +15°C° 0 mm 2 mps 641 mmHg 26%
    05:00 +15°C° 0 mm 2 mps 641 mmHg 26%
    06:00 +16°C° 0 mm 2 mps 642 mmHg 26%
    07:00 +17°C° 0 mm 2 mps 642 mmHg 25%
    08:00 +18°C° 0 mm 2 mps 643 mmHg 25%
    09:00 +20°C° 0 mm 3 mps 644 mmHg 21%
    10:00 +24°C° 0 mm 3 mps 645 mmHg 18%
    11:00 +26°C° 0 mm 4 mps 646 mmHg 14%
    12:00 +26°C° 0 mm 4 mps 645 mmHg 14%
    13:00 +27°C° 0 mm 4 mps 645 mmHg 14%
    14:00 +27°C° 0 mm 4 mps 645 mmHg 14%
    15:00 +26°C° 0 mm 3 mps 644 mmHg 16%
    16:00 +24°C° 0 mm 3 mps 644 mmHg 18%
    17:00 +22°C° 0 mm 3 mps 644 mmHg 20%
    18:00 +21°C° 0 mm 2 mps 644 mmHg 21%
    19:00 +20°C° 0 mm 2 mps 645 mmHg 23%
    20:00 +19°C° 0 mm 2 mps 645 mmHg 24%
    21:00 +18°C° 0 mm 2 mps 645 mmHg 26%
    22:00 +17°C° 0 mm 2 mps 645 mmHg 28%
    23:00 +16°C° 0 mm 2 mps 645 mmHg 29%

    Tomorrow, 26 November, Sunday

    Time Temperature Precipitation Wind Pressure Humidity
    00:00 +16°C° 0 mm 1 mps 645 mmHg 32%
    01:00 +15°C° 0 mm 1 mps 645 mmHg 35%
    02:00 +14°C° 0 mm 1 mps 645 mmHg 37%
    03:00 +13°C° 0 mm 1 mps 645 mmHg 40%
    04:00 +13°C° 0 mm 1 mps 644 mmHg 43%
    05:00 +11°C° 0 mm 0 mps 644 mmHg 46%
    06:00 +13°C° 0 mm 0 mps 645 mmHg 43%
    07:00 +14°C° 0 mm 0 mps 646 mmHg 40%
    08:00 +15°C° 0 mm 0 mps 647 mmHg 37%
    09:00 +18°C° 0 mm 1 mps 647 mmHg 34%
    10:00 +20°C° 0 mm 1 mps 647 mmHg 31%
    11:00 +21°C° 0 mm 1 mps 647 mmHg 29%
    12:00 +22°C° 0 mm 1 mps 647 mmHg 26%
    13:00 +23°C° 0 mm 1 mps 646 mmHg 24%
    14:00 +24°C° 0 mm 2 mps 646 mmHg 22%
    15:00 +23°C° 0 mm 2 mps 645 mmHg 24%
    16:00 +21°C° 0 mm 2 mps 645 mmHg 27%
    17:00 +20°C° 0 mm 2 mps 644 mmHg 29%
    18:00 +19°C° 0 mm 2 mps 644 mmHg 31%
    19:00 +19°C° 0 mm 1 mps 644 mmHg 34%
    20:00 +18°C° 0 mm 1 mps 644 mmHg 36%
    21:00 +16°C° 0 mm 1 mps 644 mmHg 37%
    22:00 +16°C° 0 mm 1 mps 644 mmHg 38%
    23:00 +15°C° 0 mm 1 mps 644 mmHg 39%

    Day after tomorrow, 27 November, Monday

    Time Temperature Precipitation Wind Pressure Humidity
    00:00 +15°C° 0 mm 1 mps 643 mmHg 40%
    01:00 +15°C° 0 mm 1 mps 643 mmHg 41%
    02:00 +14°C° 0 mm 1 mps 642 mmHg 42%
    03:00 +14°C° 0 mm 1 mps 642 mmHg 42%
    04:00 +13°C° 0 mm 1 mps 642 mmHg 43%
    05:00 +13°C° 0 mm 1 mps 641 mmHg 44%
    06:00 +14°C° 0 mm 1 mps 642 mmHg 41%
    07:00 +15°C° 0 mm 2 mps 643 mmHg 39%
    08:00 +17°C° 0 mm 2 mps 644 mmHg 36%
    09:00 +19°C° 0 mm 2 mps 644 mmHg 31%
    10:00 +21°C° 0 mm 2 mps 644 mmHg 26%
    11:00 +24°C° 0 mm 3 mps 644 mmHg 21%
    12:00 +25°C° 0 mm 3 mps 643 mmHg 19%
    13:00 +26°C° 0 mm 3 mps 642 mmHg 17%
    14:00 +27°C° 0 mm 3 mps 642 mmHg 16%
    15:00 +26°C° 0 mm 3 mps 641 mmHg 18%
    16:00 +25°C° 0 mm 3 mps 641 mmHg 20%
    17:00 +24°C° 0 mm 3 mps 640 mmHg 22%
    18:00 +22°C° 0 mm 3 mps 641 mmHg 23%
    19:00 +21°C° 0 mm 3 mps 641 mmHg 25%
    20:00 +20°C° 0 mm 3 mps 641 mmHg 26%
    21:00 +19°C° 0 mm 3 mps 641 mmHg 28%
    22:00 +18°C° 0 mm 2 mps 641 mmHg 30%
    23:00 +18°C° 0 mm 2 mps 641 mmHg 32%

    28 November, Tuesday

    Time Temperature Precipitation Wind Pressure Humidity
    00:00 +17°C° 0 mm 2 mps 640 mmHg 34%
    01:00 +16°C° 0 mm 2 mps 640 mmHg 36%
    02:00 +16°C° 0 mm 2 mps 640 mmHg 37%
    03:00 +15°C° 0 mm 2 mps 639 mmHg 39%
    04:00 +15°C° 0 mm 2 mps 639 mmHg 40%
    05:00 +14°C° 0 mm 2 mps 639 mmHg 41%
    06:00 +15°C° 0 mm 2 mps 640 mmHg 39%
    07:00 +16°C° 0 mm 2 mps 641 mmHg 38%
    08:00 +17°C° 0 mm 2 mps 642 mmHg 36%
    09:00 +19°C° 0 mm 2 mps 642 mmHg 30%
    10:00 +21°C° 0 mm 2 mps 643 mmHg 25%
    11:00 +25°C° 0 mm 2 mps 643 mmHg 20%
    12:00 +25°C° 0 mm 3 mps 643 mmHg 19%
    13:00 +26°C° 0 mm 4 mps 643 mmHg 17%
    14:00 +26°C° 0 mm 5 mps 643 mmHg 16%
    15:00 +24°C° 0 mm 6 mps 643 mmHg 19%
    16:00 +22°C° 0 mm 6 mps 643 mmHg 21%
    17:00 +20°C° 0 mm 7 mps 643 mmHg 23%
    18:00 +19°C° 0 mm 6 mps 643 mmHg 24%
    19:00 +16°C° 0 mm 5 mps 644 mmHg 24%
    20:00 +15°C° 0 mm 4 mps 644 mmHg 24%
    21:00 +14°C° 0 mm 4 mps 644 mmHg 28%
    22:00 +13°C° 0 mm 3 mps 644 mmHg 31%
    23:00 +12°C° 0 mm 3 mps 644 mmHg 35%

    29 November, Wednesday

    Time Temperature Precipitation Wind Pressure Humidity
    00:00 +12°C° 0 mm 2 mps 644 mmHg 37%
    01:00 +12°C° 0 mm 2 mps 643 mmHg 39%
    02:00 +11°C° 0 mm 1 mps 643 mmHg 40%
    03:00 +10°C° 0 mm 1 mps 643 mmHg 42%
    04:00 +10°C° 0 mm 1 mps 643 mmHg 44%
    05:00 +10°C° 0 mm 1 mps 643 mmHg 46%
    06:00 +10°C° 0 mm 1 mps 643 mmHg 44%
    07:00 +11°C° 0 mm 1 mps 644 mmHg 41%
    08:00 +12°C° 0 mm 1 mps 644 mmHg 38%
    09:00 +14°C° 0 mm 2 mps 644 mmHg 35%
    10:00 +15°C° 0 mm 2 mps 644 mmHg 33%
    11:00 +17°C° 0 mm 3 mps 644 mmHg 30%
    12:00 +19°C° 0 mm 3 mps 643 mmHg 28%
    13:00 +20°C° 0 mm 4 mps 643 mmHg 27%
    14:00 +21°C° 0 mm 4 mps 642 mmHg 25%
    15:00 +20°C° 0 mm 3 mps 642 mmHg 27%
    16:00 +20°C° 0 mm 3 mps 642 mmHg 29%
    17:00 +19°C° 0 mm 3 mps 642 mmHg 31%
    18:00 +18°C° 0 mm 2 mps 642 mmHg 33%
    19:00 +17°C° 0 mm 2 mps 642 mmHg 35%
    20:00 +16°C° 0 mm 2 mps 642 mmHg 36%
    21:00 +16°C° 0 mm 2 mps 642 mmHg 38%
    22:00 +16°C° 0 mm 2 mps 642 mmHg 39%
    23:00 +15°C° 0 mm 2 mps 642 mmHg 41%

    30 November, Thursday

    Time Temperature Precipitation Wind Pressure Humidity
    00:00 +15°C° 0 mm 2 mps 642 mmHg 43%
    01:00 +14°C° 0 mm 2 mps 641 mmHg 45%
    02:00 +14°C° 0 mm 2 mps 641 mmHg 47%
    03:00 +14°C° 0 mm 2 mps 641 mmHg 48%
    04:00 +13°C° 0 mm 2 mps 641 mmHg 50%
    05:00 +13°C° 0 mm 1 mps 641 mmHg 51%
    06:00 +14°C° 0 mm 1 mps 642 mmHg 48%
    07:00 +15°C° 0 mm 1 mps 642 mmHg 46%
    08:00 +16°C° 0 mm 1 mps 643 mmHg 43%
    09:00 +19°C° 0 mm 1 mps 643 mmHg 37%
    10:00 +21°C° 0 mm 1 mps 644 mmHg 31%
    11:00 +23°C° 0 mm 1 mps 644 mmHg 24%
    12:00 +23°C° 0 mm 1 mps 644 mmHg 22%
    13:00 +24°C° 0 mm 1 mps 643 mmHg 20%
    14:00 +25°C° 0 mm 1 mps 643 mmHg 18%
    15:00 +24°C° 0 mm 1 mps 643 mmHg 20%
    16:00 +23°C° 0 mm 2 mps 642 mmHg 22%
    17:00 +21°C° 0 mm 2 mps 642 mmHg 25%
    18:00 +20°C° 0 mm 2 mps 642 mmHg 28%
    19:00 +19°C° 0 mm 2 mps 643 mmHg 31%
    20:00 +18°C° 0 mm 1 mps 643 mmHg 34%
    21:00 +17°C° 0 mm 2 mps 643 mmHg 36%
    22:00 +16°C° 0 mm 2 mps 643 mmHg 38%
    23:00 +15°C° 0 mm 2 mps 643 mmHg 40%
    Show more